• In Czech Republic
  • List of Countries
  • For 7 days
  • Water Temperature
  • Satellite Maps
  • Weather Map
  • Weather Widgets
  • user-avatar
    Login

    Hourly Weather Ghazni

    Today, 19 October, Thursday

    Time Temperature Precipitation Wind Pressure Humidity
    00:00 +14°C° 0 mm 2 mps 587 mmHg 18%
    01:00 +13°C° 0 mm 2 mps 587 mmHg 18%
    02:00 +12°C° 0 mm 1 mps 586 mmHg 19%
    03:00 +12°C° 0 mm 1 mps 586 mmHg 20%
    04:00 +11°C° 0 mm 1 mps 586 mmHg 21%
    05:00 +11°C° 0 mm 1 mps 585 mmHg 22%
    06:00 +12°C° 0 mm 1 mps 586 mmHg 21%
    07:00 +13°C° 0 mm 1 mps 587 mmHg 20%
    08:00 +14°C° 0 mm 1 mps 588 mmHg 19%
    09:00 +15°C° 0 mm 1 mps 588 mmHg 17%
    10:00 +18°C° 0 mm 1 mps 589 mmHg 15%
    11:00 +20°C° 0 mm 1 mps 589 mmHg 13%
    12:00 +19°C° 0 mm 2 mps 589 mmHg 12%
    13:00 +20°C° 0 mm 2 mps 589 mmHg 12%
    14:00 +21°C° 0 mm 3 mps 589 mmHg 11%
    15:00 +21°C° 0 mm 3 mps 589 mmHg 11%
    16:00 +20°C° 0 mm 3 mps 589 mmHg 11%
    17:00 +20°C° 0 mm 3 mps 588 mmHg 13%
    18:00 +19°C° 0 mm 3 mps 588 mmHg 15%
    19:00 +17°C° 0 mm 3 mps 588 mmHg 17%
    20:00 +16°C° 0 mm 3 mps 588 mmHg 19%
    21:00 +14°C° 0 mm 3 mps 588 mmHg 20%
    22:00 +13°C° 0 mm 3 mps 588 mmHg 21%
    23:00 +14°C° 0 mm 2 mps 587 mmHg 22%

    Tomorrow, 20 October, Friday

    Time Temperature Precipitation Wind Pressure Humidity
    00:00 +13°C° 0 mm 2 mps 587 mmHg 23%
    01:00 +12°C° 0 mm 2 mps 587 mmHg 24%
    02:00 +11°C° 0 mm 1 mps 586 mmHg 25%
    03:00 +11°C° 0 mm 1 mps 586 mmHg 27%
    04:00 +10°C° 0 mm 1 mps 586 mmHg 28%
    05:00 +10°C° 0 mm 1 mps 586 mmHg 29%
    06:00 +10°C° 0 mm 1 mps 586 mmHg 28%
    07:00 +11°C° 0 mm 1 mps 587 mmHg 27%
    08:00 +12°C° 0 mm 1 mps 587 mmHg 26%
    09:00 +13°C° 0 mm 1 mps 588 mmHg 23%
    10:00 +15°C° 0 mm 1 mps 588 mmHg 20%
    11:00 +16°C° 0 mm 1 mps 589 mmHg 17%
    12:00 +18°C° 0 mm 1 mps 589 mmHg 15%
    13:00 +18°C° 0 mm 2 mps 589 mmHg 14%
    14:00 +19°C° 0 mm 2 mps 589 mmHg 12%
    15:00 +19°C° 0 mm 2 mps 588 mmHg 12%
    16:00 +19°C° 0 mm 3 mps 588 mmHg 12%
    17:00 +19°C° 0 mm 3 mps 588 mmHg 12%
    18:00 +17°C° 0 mm 2 mps 588 mmHg 15%
    19:00 +16°C° 0 mm 2 mps 587 mmHg 17%
    20:00 +14°C° 0 mm 1 mps 587 mmHg 19%
    21:00 +13°C° 0 mm 1 mps 587 mmHg 20%
    22:00 +12°C° 0 mm 1 mps 586 mmHg 21%
    23:00 +11°C° 0 mm 0 mps 586 mmHg 22%

    Day after tomorrow, 21 October, Saturday

    Time Temperature Precipitation Wind Pressure Humidity
    00:00 +10°C° 0 mm 0 mps 585 mmHg 22%
    01:00 +9°C° 0 mm 0 mps 585 mmHg 23%
    02:00 +9°C° 0 mm 0 mps 585 mmHg 23%
    03:00 +8°C° 0 mm 0 mps 584 mmHg 24%
    04:00 +8°C° 0 mm 0 mps 584 mmHg 24%
    05:00 +7°C° 0 mm 0 mps 583 mmHg 24%
    06:00 +8°C° 0 mm 0 mps 584 mmHg 23%
    07:00 +9°C° 0 mm 0 mps 585 mmHg 21%
    08:00 +10°C° 0 mm 0 mps 586 mmHg 20%
    09:00 +13°C° 0 mm 1 mps 586 mmHg 17%
    10:00 +14°C° 0 mm 1 mps 586 mmHg 15%
    11:00 +16°C° 0 mm 2 mps 587 mmHg 12%
    12:00 +17°C° 0 mm 2 mps 587 mmHg 11%
    13:00 +18°C° 0 mm 3 mps 586 mmHg 10%
    14:00 +19°C° 0 mm 4 mps 586 mmHg 8%
    15:00 +18°C° 0 mm 4 mps 586 mmHg 8%
    16:00 +18°C° 0 mm 4 mps 585 mmHg 8%
    17:00 +18°C° 0 mm 4 mps 585 mmHg 8%
    18:00 +16°C° 0 mm 3 mps 585 mmHg 9%
    19:00 +13°C° 0 mm 3 mps 584 mmHg 11%
    20:00 +13°C° 0 mm 2 mps 584 mmHg 12%
    21:00 +12°C° 0 mm 2 mps 584 mmHg 13%
    22:00 +10°C° 0 mm 2 mps 583 mmHg 14%
    23:00 +10°C° 0 mm 2 mps 583 mmHg 14%

    22 October, Sunday

    Time Temperature Precipitation Wind Pressure Humidity
    00:00 +10°C° 0 mm 1 mps 583 mmHg 15%
    01:00 +9°C° 0 mm 1 mps 582 mmHg 16%
    02:00 +8°C° 0 mm 1 mps 582 mmHg 17%
    03:00 +8°C° 0 mm 1 mps 581 mmHg 17%
    04:00 +7°C° 0 mm 1 mps 581 mmHg 18%
    05:00 +7°C° 0 mm 1 mps 581 mmHg 18%
    06:00 +8°C° 0 mm 1 mps 582 mmHg 17%
    07:00 +9°C° 0 mm 1 mps 583 mmHg 16%
    08:00 +10°C° 0 mm 1 mps 583 mmHg 15%
    09:00 +12°C° 0 mm 1 mps 584 mmHg 14%
    10:00 +13°C° 0 mm 1 mps 585 mmHg 12%
    11:00 +15°C° 0 mm 2 mps 585 mmHg 10%
    12:00 +16°C° 0 mm 2 mps 585 mmHg 10%
    13:00 +17°C° 0 mm 3 mps 585 mmHg 9%
    14:00 +18°C° 0 mm 4 mps 585 mmHg 9%
    15:00 +17°C° 0 mm 4 mps 585 mmHg 9%
    16:00 +17°C° 0 mm 4 mps 585 mmHg 9%
    17:00 +17°C° 0 mm 4 mps 585 mmHg 10%
    18:00 +14°C° 0 mm 4 mps 585 mmHg 12%
    19:00 +13°C° 0 mm 4 mps 584 mmHg 14%
    20:00 +12°C° 0 mm 3 mps 584 mmHg 16%
    21:00 +11°C° 0 mm 3 mps 584 mmHg 17%
    22:00 +10°C° 0 mm 3 mps 584 mmHg 18%
    23:00 +10°C° 0 mm 2 mps 584 mmHg 19%

    23 October, Monday

    Time Temperature Precipitation Wind Pressure Humidity
    00:00 +9°C° 0 mm 2 mps 584 mmHg 20%
    01:00 +8°C° 0 mm 2 mps 583 mmHg 21%
    02:00 +8°C° 0 mm 1 mps 583 mmHg 22%
    03:00 +8°C° 0 mm 1 mps 583 mmHg 23%
    04:00 +8°C° 0 mm 1 mps 583 mmHg 23%
    05:00 +7°C° 0 mm 1 mps 582 mmHg 24%
    06:00 +8°C° 0 mm 1 mps 583 mmHg 23%
    07:00 +9°C° 0 mm 1 mps 584 mmHg 21%
    08:00 +10°C° 0 mm 1 mps 585 mmHg 20%
    09:00 +11°C° 0 mm 1 mps 586 mmHg 18%
    10:00 +13°C° 0 mm 1 mps 586 mmHg 15%
    11:00 +14°C° 0 mm 1 mps 587 mmHg 13%
    12:00 +15°C° 0 mm 2 mps 587 mmHg 12%
    13:00 +16°C° 0 mm 3 mps 587 mmHg 11%
    14:00 +17°C° 0 mm 3 mps 587 mmHg 10%
    15:00 +17°C° 0 mm 3 mps 587 mmHg 10%
    16:00 +17°C° 0 mm 3 mps 587 mmHg 11%
    17:00 +17°C° 0 mm 3 mps 587 mmHg 11%
    18:00 +14°C° 0 mm 3 mps 587 mmHg 13%
    19:00 +14°C° 0 mm 2 mps 587 mmHg 14%
    20:00 +13°C° 0 mm 2 mps 587 mmHg 16%
    21:00 +12°C° 0 mm 2 mps 587 mmHg 17%
    22:00 +11°C° 0 mm 1 mps 587 mmHg 18%
    23:00 +10°C° 0 mm 1 mps 587 mmHg 19%

    24 October, Tuesday

    Time Temperature Precipitation Wind Pressure Humidity
    00:00 +10°C° 0 mm 1 mps 586 mmHg 20%
    01:00 +9°C° 0 mm 1 mps 586 mmHg 21%
    02:00 +9°C° 0 mm 1 mps 586 mmHg 22%
    03:00 +8°C° 0 mm 1 mps 586 mmHg 23%
    04:00 +8°C° 0 mm 1 mps 586 mmHg 23%
    05:00 +8°C° 0 mm 1 mps 586 mmHg 24%
    06:00 +9°C° 0 mm 1 mps 587 mmHg 23%
    07:00 +9°C° 0 mm 1 mps 588 mmHg 22%
    08:00 +10°C° 0 mm 1 mps 588 mmHg 20%
    09:00 +12°C° 0 mm 1 mps 589 mmHg 18%
    10:00 +14°C° 0 mm 1 mps 590 mmHg 15%
    11:00 +16°C° 0 mm 1 mps 591 mmHg 12%
    12:00 +18°C° 0 mm 1 mps 591 mmHg 11%
    13:00 +19°C° 0 mm 1 mps 591 mmHg 10%
    14:00 +19°C° 0 mm 1 mps 590 mmHg 9%
    15:00 +19°C° 0 mm 1 mps 590 mmHg 10%
    16:00 +18°C° 0 mm 2 mps 590 mmHg 10%
    17:00 +18°C° 0 mm 2 mps 590 mmHg 10%
    18:00 +16°C° 0 mm 2 mps 590 mmHg 12%
    19:00 +15°C° 0 mm 1 mps 589 mmHg 14%
    20:00 +13°C° 0 mm 1 mps 589 mmHg 15%
    21:00 +12°C° 0 mm 1 mps 589 mmHg 16%
    22:00 +12°C° 0 mm 1 mps 589 mmHg 17%
    23:00 +11°C° 0 mm 1 mps 588 mmHg 17%
    Show more